Middlebury State AP, Middlebu, VT

1:49 PM EDT on October 23, 2017 (GMT -0400)
Middlebury State AP, Middlebu

Weather History for K6B0 - March, 2014

Change the Weather History Date:

Saturday, March 8, 2014

  Actual Average (KRUT) Record (KRUT)
Temperature  
Mean Temperature 30 °F -  
Max Temperature 37 °F 39 °F 66 °F (1987)
Min Temperature 23 °F 18 °F -5 °F (1989)
Degree Days  
Heating Degree Days 35    
Moisture  
Dew Point 22 °F    
Average Humidity 73    
Maximum Humidity 85    
Minimum Humidity 53    
Precipitation  
Precipitation 0.00 in - - ()
Sea Level Pressure  
Sea Level Pressure 29.85 in    
Wind  
Wind Speed 3 mph (WNW)    
Max Wind Speed 16 mph    
Max Gust Speed 20 mph    
Visibility 10 miles    
Events      
Averages and records for this station are not official NWS values.
T = Trace of Precipitation, MM = Missing Value Source: NWS Daily Summary

Daily Weather History Graph

Daily Weather History Graph

Search for Another Location

Airport or City:

Trip Planner

Search our weather history database for the weather conditions in past years. The results will help you decide how hot, cold, wet, or windy it might be!

Date:

Astronomy

Mar. 08, 2014 Rise Set
Actual Time 6:17 AM EST 5:49 PM EST
Civil Twilight 5:48 AM EST 6:18 PM EST
Nautical Twilight 5:15 AM EST 6:52 PM EST
Astronomical Twilight 4:41 AM EST 7:25 PM EST
Moon 10:43 AM EST (3/8) 12:58 AM EST (3/8)
Length of Visible Light 12h 30m
Length of Day
11h 32m
First Quarter, 51% of the Moon is Illuminated
Mar 8
First Quarter
Mar 16
Full
Mar 23
Last Quarter
Mar 30
New
Apr 7
First Quarter

Hourly Weather History & Observations

Time (EST) Temp. Windchill Dew Point Humidity Pressure Visibility Wind Dir Wind Speed Gust Speed Precip Events Conditions
12:15 AM 32.0 °F 28.7 °F 16.7 °F 53% 29.90 in 10.0 mi East 3.5 mph - N/A   Clear
12:35 AM 31.8 °F 27.3 °F 16.7 °F 54% 29.90 in 10.0 mi ESE 4.6 mph - N/A   Clear
12:55 AM 32.0 °F 28.7 °F 17.1 °F 54% 29.90 in 10.0 mi East 3.5 mph - N/A   Clear
1:15 AM 31.1 °F - 17.1 °F 56% 29.89 in 10.0 mi Calm Calm - N/A   Clear
1:35 AM 29.1 °F 25.4 °F 18.1 °F 64% 29.89 in 10.0 mi East 3.5 mph - N/A   Clear
1:55 AM 29.3 °F - 18.7 °F 65% 29.88 in 10.0 mi Calm Calm - N/A   Clear
2:15 AM 26.6 °F - 19.6 °F 75% 29.87 in 10.0 mi Calm Calm - N/A   Clear
2:35 AM 27.1 °F - 19.9 °F 74% 29.86 in 10.0 mi Calm Calm - N/A   Clear
2:55 AM 28.6 °F - 20.5 °F 72% 29.86 in 10.0 mi Calm Calm - N/A   Clear
3:15 AM 26.2 °F 22.1 °F 21.4 °F 82% 29.84 in 10.0 mi East 3.5 mph - N/A   Clear
3:35 AM 31.5 °F - 22.6 °F 70% 29.82 in 10.0 mi Calm Calm - N/A   Clear
3:55 AM 27.0 °F - 20.5 °F 77% 29.83 in 10.0 mi Calm Calm - N/A   Clear
4:15 AM 25.9 °F - 20.8 °F 81% 29.83 in 10.0 mi Calm Calm - N/A   Clear
4:35 AM 25.0 °F - 20.7 °F 84% 29.82 in 10.0 mi Calm Calm - N/A   Mostly Cloudy
4:55 AM 25.5 °F 21.3 °F 20.8 °F 82% 29.82 in 10.0 mi ESE 3.5 mph - N/A   Overcast
5:15 AM 28.2 °F 23.1 °F 22.5 °F 79% 29.81 in 10.0 mi ESE 4.6 mph - N/A   Overcast
5:35 AM 31.8 °F 28.5 °F 23.0 °F 70% 29.80 in 10.0 mi ENE 3.5 mph - N/A   Overcast
5:55 AM 30.9 °F 26.2 °F 22.3 °F 70% 29.80 in 10.0 mi SE 4.6 mph - N/A   Overcast
6:15 AM 28.4 °F 23.3 °F 22.1 °F 77% 29.80 in 10.0 mi SE 4.6 mph - N/A   Overcast
6:35 AM 29.1 °F 25.4 °F 22.1 °F 75% 29.81 in 10.0 mi ESE 3.5 mph - N/A   Overcast
6:55 AM 28.0 °F - 21.9 °F 78% 29.80 in 10.0 mi Calm Calm - N/A   Overcast
7:15 AM 28.8 °F - 22.3 °F 77% 29.81 in 10.0 mi Calm Calm - N/A   Overcast
7:35 AM 29.7 °F - 22.3 °F 74% 29.80 in 10.0 mi Calm Calm - N/A   Overcast
7:55 AM 29.8 °F - 22.3 °F 73% 29.82 in 10.0 mi Calm Calm - N/A   Overcast
8:15 AM 31.5 °F - 23.0 °F 71% 29.82 in 10.0 mi Calm Calm - N/A   Overcast
8:35 AM 32.9 °F - 23.5 °F 68% 29.81 in 10.0 mi Calm Calm - N/A   Mostly Cloudy
8:55 AM 34.5 °F - 23.9 °F 65% 29.81 in 10.0 mi Calm Calm - N/A   Overcast
9:15 AM 35.2 °F - 24.6 °F 65% 29.81 in 10.0 mi Calm Calm - N/A   Overcast
9:35 AM 36.7 °F - 25.5 °F 64% 29.81 in 10.0 mi Calm Calm - N/A   Overcast
9:55 AM 36.7 °F - 26.2 °F 66% 29.81 in 10.0 mi Calm Calm - N/A   Overcast
10:15 AM 37.0 °F 33.3 °F 26.4 °F 65% 29.82 in 10.0 mi WSW 4.6 mph - N/A   Overcast
10:35 AM 37.4 °F - 25.9 °F 63% 29.82 in 10.0 mi Calm Calm - N/A   Overcast
10:50 AM 37.0 °F - 26.4 °F 65% 29.82 in 10.0 mi Calm Calm - N/A   Overcast
11:15 AM 37.4 °F 32.8 °F 26.1 °F 64% 29.82 in 10.0 mi WNW 5.8 mph - N/A   Overcast
11:35 AM 37.0 °F 30.4 °F 25.0 °F 62% 29.83 in 10.0 mi West 9.2 mph - N/A   Overcast
11:55 AM 37.4 °F 30.8 °F 25.5 °F 62% 29.82 in 10.0 mi WNW 9.2 mph - N/A   Overcast
12:15 PM 36.5 °F 27.0 °F 25.9 °F 65% 29.82 in 10.0 mi WNW 16.1 mph - N/A   Overcast
1:00 PM 34.9 °F 27.7 °F 27.3 °F 74% 29.82 in 10.0 mi WNW 9.2 mph - N/A   Overcast
1:15 PM 34.0 °F 25.5 °F 27.5 °F 77% 29.82 in 10.0 mi WNW 11.5 mph - N/A   Overcast
1:35 PM 33.4 °F 25.9 °F 28.0 °F 81% 29.82 in 10.0 mi WNW 9.2 mph 17.3 mph N/A   Overcast
1:55 PM 33.1 °F 26.1 °F 28.2 °F 82% 29.82 in 10.0 mi WNW 8.1 mph - N/A   Overcast
2:15 PM 32.5 °F 24.8 °F 28.2 °F 84% 29.82 in 10.0 mi WNW 9.2 mph - N/A   Overcast
2:35 PM 32.5 °F 23.2 °F 28.2 °F 84% 29.83 in 10.0 mi NW 12.7 mph 19.6 mph N/A   Overcast
2:55 PM 32.4 °F 23.5 °F 28.0 °F 84% 29.83 in 10.0 mi NW 11.5 mph - N/A   Overcast
3:15 PM 32.4 °F 23.5 °F 27.5 °F 82% 29.84 in 10.0 mi NW 11.5 mph 17.3 mph N/A   Overcast
3:35 PM 32.5 °F 23.7 °F 27.1 °F 80% 29.83 in 10.0 mi WNW 11.5 mph 17.3 mph N/A   Overcast
3:55 PM 32.5 °F 24.8 °F 26.6 °F 79% 29.84 in 10.0 mi WNW 9.2 mph 16.1 mph N/A   Overcast
4:15 PM 32.5 °F 23.7 °F 26.1 °F 77% 29.84 in 10.0 mi WNW 11.5 mph - N/A   Overcast
4:35 PM 32.0 °F 23.6 °F 25.5 °F 77% 29.85 in 10.0 mi WNW 10.4 mph 16.1 mph N/A   Overcast
4:55 PM 32.0 °F 24.2 °F 25.7 °F 78% 29.85 in 10.0 mi WNW 9.2 mph - N/A   Overcast
5:15 PM 32.0 °F 23.0 °F 25.7 °F 78% 29.86 in 10.0 mi WNW 11.5 mph - N/A   Overcast
5:35 PM 31.6 °F 23.1 °F 25.2 °F 77% 29.87 in 10.0 mi WNW 10.4 mph - N/A   Overcast
5:55 PM 31.1 °F 23.7 °F 24.6 °F 77% 29.87 in 10.0 mi WNW 8.1 mph - N/A   Overcast
6:10 PM 31.1 °F 23.1 °F 23.4 °F 73% 29.88 in 10.0 mi NW 9.2 mph - N/A   Overcast
6:35 PM 30.7 °F 24.1 °F 21.2 °F 68% 29.89 in 10.0 mi WNW 6.9 mph - N/A   Mostly Cloudy
7:20 PM 29.5 °F 25.9 °F 19.0 °F 65% 29.90 in 10.0 mi WNW 3.5 mph - N/A   Clear
7:35 PM 29.1 °F - 18.7 °F 65% 29.90 in 10.0 mi Calm Calm - N/A   Clear
7:55 PM 28.2 °F - 18.9 °F 68% 29.89 in 10.0 mi Calm Calm - N/A   Clear
8:15 PM 27.3 °F - 19.6 °F 73% 29.90 in 10.0 mi Calm Calm - N/A   Clear
8:35 PM 26.4 °F - 19.4 °F 75% 29.91 in 10.0 mi Calm Calm - N/A   Clear
8:55 PM 26.4 °F 22.4 °F 19.0 °F 74% 29.91 in 10.0 mi NW 3.5 mph - N/A   Clear
9:15 PM 26.4 °F 22.4 °F 19.0 °F 74% 29.92 in 10.0 mi WNW 3.5 mph - N/A   Clear
9:35 PM 25.7 °F - 19.0 °F 76% 29.92 in 10.0 mi Calm Calm - N/A   Clear
9:55 PM 24.3 °F - 18.9 °F 80% 29.92 in 10.0 mi Calm Calm - N/A   Clear
10:15 PM 23.2 °F - 19.2 °F 85% 29.92 in 10.0 mi Calm Calm - N/A   Clear
10:35 PM 23.0 °F - 18.5 °F 83% 29.91 in 10.0 mi Calm Calm - N/A   Clear
10:55 PM 23.0 °F - 18.9 °F 84% 29.91 in 10.0 mi Calm Calm - N/A   Clear
11:15 PM 23.2 °F - 17.2 °F 78% 29.90 in 10.0 mi Calm Calm - N/A   Clear
11:35 PM 24.6 °F 20.3 °F 14.2 °F 65% 29.90 in 10.0 mi WNW 3.5 mph - N/A   Clear
11:55 PM 24.8 °F - 12.9 °F 61% 29.90 in 10.0 mi Calm Calm - N/A   Clear